Flag for Israel Weather past 2 weeks in Netanya, Israel

Now
70 °F

Passing clouds.


Feels Like: 70 °F
Forecast: 63 / 70 °F
Wind: 9 mph from Northwest

Location: Dov Airport

Current Time: May 3, 2015 at 1:08:02 PM

Latest Report: May 3, 2015 at 11:50 AM


Visibility: N/A

Pressure: 29.92 "Hg

Humidity: 64%

Dew point: 57 °F

Location of NetanyaLocation

Historic Weather in Netanya — Graph

°F

Netanya temperature yesterday

Maximum temperature yesterday: 70 °F (at 11:50 AM)
Minimum temperature yesterday: 61 °F (at 6:00 AM)
Average temperature yesterday: 67 °F

Past Weeks' High & Low Weather Summary

 TemperatureHumidityPressure
High82 °F (Apr 20, 3:50 PM)100% (Apr 29, 5:50 AM)30.21 "Hg (Apr 29, 5:50 AM)
Low54 °F (Apr 25, 6:00 AM)15% (Apr 20, 6:50 PM)29.80 "Hg (Apr 20, 8:50 PM)
Average68 °F66%29.97 "Hg
* Reported Apr 18 11:50 AM — May 3 11:50 AM, Netanya, Weather by CustomWeather, © 2015

Note: Actual official high and low records may vary slightly from our data, if they occured in-between our weather recording intervals... More about our weather records

Advertising

Netanya weather history for previous 24 hours

 ConditionsComfort  
Time TempWeatherWind HumidityBarometerVisibility
11:50 AM
Sun, May 3
70 °FPassing clouds.9 mph64%29.92 "HgN/A
10:50 AM70 °FPassing clouds.10 mph64%29.92 "HgN/A
9:50 AM70 °FScattered clouds.7 mph60%29.92 "HgN/A
8:50 AM68 °FPartly sunny.3 mph64%29.95 "HgN/A
7:50 AM66 °FPartly sunny.3 mph68%29.95 "HgN/A
6:50 AM66 °FPassing clouds.5 mph68%29.92 "HgN/A
5:50 AM66 °FPassing clouds.1 mph68%29.92 "HgN/A
10:50 PM
Sat, May 2
66 °FPassing clouds.6 mph73%29.95 "HgN/A
9:50 PM66 °FPassing clouds.8 mph73%29.98 "HgN/A
8:50 PM66 °FPassing clouds.7 mph73%29.95 "HgN/A
7:50 PM66 °FPassing clouds.9 mph73%29.95 "HgN/A
6:50 PM68 °FSunny.12 mph69%29.95 "Hg10 mi
5:50 PM68 °FSunny.12 mph64%29.95 "Hg10 mi
4:50 PM68 °FSunny.12 mph64%29.95 "Hg10 mi
3:50 PM70 °FSunny.12 mph60%29.98 "Hg10 mi
2:50 PM70 °FSunny.10 mph60%29.98 "Hg10 mi
1:50 PM70 °FSunny.10 mph64%30.01 "Hg10 mi
Weather by CustomWeather, © 2015

See weather overviewHow to use our weather pages